When you browse on this site, cookies collect data to enhance your experience and personalize the content and advertising you see.
Visit our Privacy Policy to learn more. By continuing to use the site, you agree to this use of cookies and data.

Tiempo cada hora Gavriki

Hoy, 6 Agosto, Jueves

Tiempo Temperatura Precipitaciones Viento Presión Humedad
00:00 +18°C° 0 mm 2 mps 749 mmHg 96%
01:00 +18°C° 0 mm 2 mps 749 mmHg 97%
02:00 +17°C° 0 mm 2 mps 750 mmHg 97%
03:00 +17°C° 0.1 mm 2 mps 750 mmHg 98%
04:00 +17°C° 0.1 mm 2 mps 750 mmHg 98%
05:00 +17°C° 0.1 mm 2 mps 750 mmHg 98%
06:00 +18°C° 0 mm 2 mps 751 mmHg 95%
07:00 +19°C° 0 mm 2 mps 751 mmHg 92%
08:00 +20°C° 0 mm 3 mps 752 mmHg 89%
09:00 +21°C° 0 mm 3 mps 752 mmHg 80%
10:00 +22°C° 0 mm 3 mps 752 mmHg 72%
11:00 +24°C° 0 mm 3 mps 752 mmHg 63%
12:00 +25°C° 0 mm 3 mps 752 mmHg 60%
13:00 +25°C° 0 mm 3 mps 752 mmHg 57%
14:00 +26°C° 0 mm 3 mps 752 mmHg 55%
15:00 +25°C° 0 mm 2 mps 752 mmHg 58%
16:00 +25°C° 0 mm 2 mps 752 mmHg 61%
17:00 +25°C° 0 mm 2 mps 752 mmHg 65%
18:00 +23°C° 0 mm 2 mps 753 mmHg 68%
19:00 +21°C° 0 mm 1 mps 753 mmHg 72%
20:00 +20°C° 0 mm 1 mps 753 mmHg 76%
21:00 +19°C° 0 mm 1 mps 753 mmHg 78%
22:00 +18°C° 0 mm 1 mps 753 mmHg 79%
23:00 +18°C° 0 mm 1 mps 753 mmHg 81%

Mañana, 7 Agosto, Viernes

Tiempo Temperatura Precipitaciones Viento Presión Humedad
00:00 +16°C° 0 mm 1 mps 754 mmHg 83%
01:00 +16°C° 0 mm 2 mps 754 mmHg 84%
02:00 +15°C° 0 mm 2 mps 754 mmHg 86%
03:00 +15°C° 0 mm 2 mps 754 mmHg 87%
04:00 +15°C° 0 mm 2 mps 754 mmHg 88%
05:00 +14°C° 0 mm 2 mps 754 mmHg 89%
06:00 +16°C° 0 mm 2 mps 754 mmHg 84%
07:00 +18°C° 0 mm 2 mps 755 mmHg 79%
08:00 +20°C° 0 mm 2 mps 755 mmHg 74%
09:00 +21°C° 0 mm 2 mps 755 mmHg 70%
10:00 +23°C° 0 mm 2 mps 755 mmHg 66%
11:00 +24°C° 0 mm 2 mps 755 mmHg 63%
12:00 +25°C° 0 mm 2 mps 754 mmHg 63%
13:00 +25°C° 0 mm 2 mps 754 mmHg 63%
14:00 +25°C° 0 mm 2 mps 754 mmHg 63%
15:00 +25°C° 0.1 mm 2 mps 754 mmHg 66%
16:00 +25°C° 0.1 mm 2 mps 754 mmHg 70%
17:00 +24°C° 0.1 mm 2 mps 753 mmHg 74%
18:00 +23°C° 0.1 mm 2 mps 753 mmHg 78%
19:00 +21°C° 0.1 mm 2 mps 753 mmHg 82%
20:00 +19°C° 0.1 mm 2 mps 753 mmHg 86%
21:00 +18°C° 0 mm 2 mps 753 mmHg 88%
22:00 +19°C° 0 mm 1 mps 753 mmHg 91%
23:00 +18°C° 0 mm 1 mps 753 mmHg 94%

Pasado mañana, 8 Agosto, Sábado

Tiempo Temperatura Precipitaciones Viento Presión Humedad
00:00 +16°C° 0 mm 1 mps 753 mmHg 94%
01:00 +16°C° 0 mm 1 mps 753 mmHg 94%
02:00 +15°C° 0 mm 1 mps 753 mmHg 95%
03:00 +15°C° 0 mm 1 mps 753 mmHg 95%
04:00 +15°C° 0 mm 1 mps 753 mmHg 95%
05:00 +15°C° 0 mm 1 mps 753 mmHg 95%
06:00 +18°C° 0 mm 1 mps 753 mmHg 91%
07:00 +18°C° 0 mm 2 mps 753 mmHg 86%
08:00 +20°C° 0 mm 2 mps 753 mmHg 81%
09:00 +21°C° 0 mm 2 mps 753 mmHg 76%
10:00 +23°C° 0 mm 2 mps 753 mmHg 70%
11:00 +25°C° 0 mm 2 mps 753 mmHg 64%
12:00 +25°C° 0.1 mm 2 mps 752 mmHg 64%
13:00 +26°C° 0.1 mm 1 mps 752 mmHg 63%
14:00 +26°C° 0.1 mm 1 mps 752 mmHg 62%
15:00 +25°C° 0.2 mm 2 mps 751 mmHg 67%
16:00 +25°C° 0.2 mm 2 mps 751 mmHg 72%
17:00 +24°C° 0.2 mm 2 mps 751 mmHg 77%
18:00 +23°C° 0 mm 2 mps 751 mmHg 80%
19:00 +21°C° 0 mm 2 mps 750 mmHg 84%
20:00 +19°C° 0 mm 2 mps 750 mmHg 88%
21:00 +19°C° 0 mm 2 mps 750 mmHg 90%
22:00 +18°C° 0 mm 2 mps 750 mmHg 91%
23:00 +17°C° 0 mm 2 mps 750 mmHg 93%

9 Agosto, Domingo

Tiempo Temperatura Precipitaciones Viento Presión Humedad
00:00 +17°C° 0 mm 2 mps 750 mmHg 93%
01:00 +17°C° 0 mm 2 mps 750 mmHg 94%
02:00 +16°C° 0 mm 2 mps 750 mmHg 94%
03:00 +16°C° 0 mm 2 mps 750 mmHg 95%
04:00 +16°C° 0 mm 2 mps 750 mmHg 95%
05:00 +16°C° 0 mm 2 mps 750 mmHg 96%
06:00 +17°C° 0 mm 2 mps 750 mmHg 91%
07:00 +19°C° 0 mm 2 mps 750 mmHg 87%
08:00 +20°C° 0 mm 2 mps 749 mmHg 83%
09:00 +23°C° 0.6 mm 2 mps 749 mmHg 79%
10:00 +24°C° 0.6 mm 2 mps 749 mmHg 75%
11:00 +25°C° 0.6 mm 2 mps 749 mmHg 72%
12:00 +25°C° 0.9 mm 2 mps 749 mmHg 70%
13:00 +26°C° 0.9 mm 2 mps 749 mmHg 68%
14:00 +26°C° 0.9 mm 2 mps 748 mmHg 66%
15:00 +26°C° 0.4 mm 2 mps 748 mmHg 69%
16:00 +25°C° 0.4 mm 2 mps 748 mmHg 72%
17:00 +25°C° 0.4 mm 1 mps 748 mmHg 76%
18:00 +24°C° 0.1 mm 1 mps 748 mmHg 80%
19:00 +22°C° 0.1 mm 1 mps 748 mmHg 84%
20:00 +20°C° 0.1 mm 1 mps 748 mmHg 88%
21:00 +20°C° 0.2 mm 1 mps 748 mmHg 89%
22:00 +20°C° 0.2 mm 1 mps 748 mmHg 90%
23:00 +19°C° 0.2 mm 1 mps 748 mmHg 92%

10 Agosto, Lunes

Tiempo Temperatura Precipitaciones Viento Presión Humedad
00:00 +19°C° 0.1 mm 1 mps 748 mmHg 92%
01:00 +18°C° 0.1 mm 1 mps 748 mmHg 92%
02:00 +18°C° 0.1 mm 1 mps 748 mmHg 93%
03:00 +18°C° 0 mm 1 mps 748 mmHg 93%
04:00 +18°C° 0 mm 1 mps 748 mmHg 93%
05:00 +16°C° 0 mm 1 mps 748 mmHg 94%
06:00 +19°C° 0 mm 1 mps 748 mmHg 90%
07:00 +20°C° 0 mm 1 mps 748 mmHg 87%
08:00 +21°C° 0 mm 2 mps 748 mmHg 84%
09:00 +23°C° 0.4 mm 2 mps 748 mmHg 78%
10:00 +25°C° 0.4 mm 2 mps 748 mmHg 71%
11:00 +26°C° 0.4 mm 2 mps 748 mmHg 65%
12:00 +27°C° 0.3 mm 2 mps 748 mmHg 62%
13:00 +27°C° 0.3 mm 2 mps 747 mmHg 58%
14:00 +28°C° 0.3 mm 2 mps 747 mmHg 55%
15:00 +28°C° 0 mm 1 mps 747 mmHg 58%
16:00 +28°C° 0 mm 1 mps 747 mmHg 61%
17:00 +28°C° 0 mm 1 mps 747 mmHg 65%
18:00 +25°C° 0.1 mm 1 mps 747 mmHg 68%
19:00 +23°C° 0.1 mm 1 mps 746 mmHg 72%
20:00 +21°C° 0.1 mm 1 mps 746 mmHg 76%
21:00 +20°C° 0.5 mm 1 mps 746 mmHg 79%
22:00 +20°C° 0.5 mm 1 mps 746 mmHg 83%
23:00 +19°C° 0.5 mm 1 mps 746 mmHg 87%

11 Agosto, Martes

Tiempo Temperatura Precipitaciones Viento Presión Humedad
00:00 +19°C° 0.3 mm 1 mps 746 mmHg 88%
01:00 +18°C° 0.3 mm 1 mps 746 mmHg 89%
02:00 +18°C° 0.3 mm 1 mps 746 mmHg 90%
03:00 +18°C° 0.2 mm 1 mps 746 mmHg 91%
04:00 +18°C° 0.2 mm 1 mps 746 mmHg 91%
05:00 +18°C° 0.2 mm 1 mps 746 mmHg 91%
06:00 +19°C° 0 mm 1 mps 746 mmHg 89%
07:00 +19°C° 0 mm 2 mps 746 mmHg 87%
08:00 +21°C° 0 mm 2 mps 746 mmHg 85%
09:00 +23°C° 0.8 mm 2 mps 746 mmHg 81%
10:00 +24°C° 0.8 mm 2 mps 746 mmHg 77%
11:00 +25°C° 0.8 mm 2 mps 746 mmHg 74%
12:00 +25°C° 1.2 mm 2 mps 746 mmHg 74%
13:00 +25°C° 1.2 mm 2 mps 746 mmHg 73%
14:00 +25°C° 1.2 mm 3 mps 746 mmHg 73%
15:00 +25°C° 0.5 mm 3 mps 746 mmHg 76%
16:00 +24°C° 0.5 mm 3 mps 746 mmHg 79%
17:00 +24°C° 0.5 mm 3 mps 746 mmHg 82%
18:00 +21°C° 0 mm 3 mps 746 mmHg 85%
19:00 +20°C° 0 mm 3 mps 746 mmHg 89%
20:00 +18°C° 0 mm 2 mps 746 mmHg 93%
21:00 +18°C° 0 mm 2 mps 746 mmHg 94%
22:00 +17°C° 0 mm 2 mps 746 mmHg 95%
23:00 +16°C° 0 mm 2 mps 746 mmHg 96%
Mostrar más